Flag Weather past 2 weeks in Thiès, Senegal

Now
73 °F

Passing clouds.


Feels Like: 74 °F
Forecast: 71 / 90 °F
Wind: 15 mph from North

Location: Dakar / Yoff

Current Time: Nov 28, 2014 at 7:08:43 AM

Latest Report: Nov 28, 2014 at 6:30 AM


Visibility: N/A

Pressure: 29.86 "Hg

Humidity: 78%

Dew point: 66 °F

Location of ThièsLocation

Historic Weather in Thiès — Graph

°F

Thiès temperature yesterday

Maximum temperature yesterday: 81 °F (at 11:00 AM)
Minimum temperature yesterday: 75 °F (at 6:00 AM)
Average temperature yesterday: 78 °F

Past Weeks' High & Low Weather Summary

 TemperatureHumidityPressure
High86 °F (Nov 14, 1:30 PM)100% (Nov 16, 6:30 AM)29.98 "Hg (Nov 16, 6:30 AM)
Low73 °F (Nov 16, 1:00 AM)46% (Nov 15, 12:00 PM)29.77 "Hg (Nov 14, 4:30 PM)
Average79 °F75%29.89 "Hg
* Reported Nov 13 6:00 AM — Nov 28 6:00 AM, Thiès, Weather by CustomWeather, © 2014

Note: Actual official high and low records may vary slightly from our data, if they occured in-between our weather recording intervals... More about our weather records

Advertising

Thiès weather history for previous 24 hours

 ConditionsComfort  
Time TempWeatherWind HumidityBarometerVisibility
6:00 AM
Nov 28
73 °FPassing clouds.14 mph78%29.86 "HgN/A
5:30 AM73 °FPassing clouds.16 mph78%29.86 "HgN/A
5:00 AM73 °FPassing clouds.15 mph83%29.86 "HgN/A
4:30 AM73 °FPassing clouds.16 mph83%29.86 "HgN/A
4:00 AM75 °FClear.15 mph74%29.86 "Hg10 mi
3:30 AM75 °FClear.15 mph74%29.86 "Hg10 mi
3:00 AM75 °FClear.15 mph74%29.86 "Hg10 mi
2:30 AM75 °FClear.13 mph74%29.89 "Hg10 mi
2:00 AM75 °FClear.13 mph74%29.89 "Hg10 mi
1:30 AM75 °FClear.14 mph69%29.89 "Hg10 mi
1:00 AM75 °FClear.14 mph69%29.89 "Hg10 mi
12:30 AM75 °FClear.14 mph74%29.89 "Hg10 mi
12:00 AM75 °FClear.15 mph69%29.89 "Hg10 mi
11:30 PM
Nov 27
75 °FClear.15 mph74%29.89 "Hg10 mi
11:00 PM75 °FClear.14 mph74%29.89 "Hg10 mi
10:30 PM75 °FClear.12 mph74%29.89 "Hg10 mi
10:00 PM75 °FClear.9 mph69%29.89 "Hg10 mi
9:30 PM75 °FClear.10 mph69%29.89 "Hg10 mi
9:00 PM75 °FClear.7 mph69%29.86 "Hg10 mi
8:30 PM75 °FClear.8 mph69%29.86 "Hg10 mi
8:00 PM75 °FClear.9 mph69%29.86 "Hg10 mi
7:30 PM75 °FClear.12 mph69%29.86 "Hg10 mi
7:00 PM75 °FClear.13 mph69%29.86 "Hg10 mi
6:30 PM77 °FSunny.16 mph69%29.86 "Hg10 mi
6:00 PM79 °FSunny.15 mph61%29.86 "Hg10 mi
5:30 PM79 °FSunny.18 mph58%29.86 "Hg10 mi
5:00 PM79 °FSunny.18 mph58%29.86 "Hg10 mi
4:30 PM81 °FSunny.18 mph54%29.86 "Hg10 mi
4:00 PM81 °FSunny.20 mph54%29.86 "Hg10 mi
3:30 PM81 °FSunny.20 mph54%29.86 "Hg10 mi
3:00 PM81 °FSunny.20 mph54%29.86 "Hg10 mi
2:30 PM81 °FSunny.20 mph54%29.86 "Hg10 mi
2:00 PM81 °FSunny.20 mph54%29.89 "Hg10 mi
1:30 PM81 °FSunny.18 mph54%29.89 "Hg10 mi
1:00 PM81 °FSunny.20 mph54%29.92 "Hg10 mi
12:30 PM81 °FClear.20 mph54%29.92 "Hg6 mi
12:00 PM81 °FClear.18 mph58%29.92 "Hg5 mi
11:30 AM81 °FSunny.18 mph54%29.92 "Hg10 mi
11:00 AM81 °FSunny.16 mph58%29.95 "Hg10 mi
10:30 AM79 °FSunny.18 mph61%29.95 "Hg10 mi
10:00 AM79 °FSunny.16 mph61%29.92 "Hg10 mi
9:30 AM79 °FSunny.16 mph61%29.92 "Hg10 mi
9:00 AM77 °FSunny.14 mph69%29.92 "Hg10 mi
8:30 AM77 °FClear.15 mph69%29.92 "Hg6 mi
8:00 AM77 °FClear.16 mph69%29.92 "Hg6 mi
7:30 AM75 °FClear.15 mph78%29.92 "Hg6 mi
7:00 AM75 °FClear.15 mph78%29.89 "Hg10 mi
Weather by CustomWeather, © 2014

See weather overviewHow to use our weather pages